• Our mission is to promote and protect San Carlos Airport and its flight operations, and to enhance the safety and spirit of general aviation through participation in local community activities.


  • The San Carlos Airport Association (SCAPA) has represented pilots and friends of the Airport since our founding in 1986.

Live View of San Carlos Airport (SQL)

San Carlos METAR

  • KSQL 211750Z 01006KT 10SM SKC 19/14 A3000

    A METAR describes the current weather at an airport. Click here to learn how to read a METAR.

SQL Notams

  • Click here and enter KSQL in the Locations box to read the Notices to Airmen (Notams) about San Carlos Airport.

ASOS from Half Moon Bay Airport (HAF)



  • Email: webmaster at sancarlosairport.org
  • Our mailing address:
    San Carlos Airport Association
    P.O. Box 1183
    San Carlos, CA 94070

Archive for August, 2012

The FAA is scheduled to flight check the VASIs on Friday Aug. 10th. We can expect multiple passes at various altitudes, perhaps by their Learjet, at unexpected times.

posted by Administrator3 Aug 09, 2012  04:08 PM
read (0 comments)